Weather History for KPYM - November, 2012

Change the Weather History Date:

Wednesday, November 14, 2012

  Actual Average Record
Temperature  
Mean Temperature 42 °F -  
Max Temperature 45 °F 50 °F 72 °F (1959)
Min Temperature 39 °F 32 °F 15 °F (1986)
Degree Days  
Heating Degree Days 23    
Moisture  
Dew Point 31 °F    
Average Humidity 64    
Maximum Humidity 86    
Minimum Humidity 55    
Precipitation  
Precipitation 0.01 in - - ()
Sea Level Pressure  
Sea Level Pressure 30.45 in    
Wind  
Wind Speed 12 mph (NNE)    
Max Wind Speed 20 mph    
Max Gust Speed 29 mph    
Visibility 10 miles    
Events Rain    
Averages and records for this station are not official NWS values.
T = Trace of Precipitation, MM = Missing Value Source: NWS Daily Summary

Daily Weather History Graph

Daily Weather History Graph

Search for Another Location

Airport or City:

Trip Planner

Search our weather history database for the weather conditions in past years. The results will help you decide how hot, cold, wet, or windy it might be!

Date:

Astronomy

Nov. 14, 2012 Rise Set
Actual Time 6:31 AM EST 4:22 PM EST
Civil Twilight 6:01 AM EST 4:52 PM EST
Nautical Twilight 5:28 AM EST 5:26 PM EST
Astronomical Twilight 4:55 AM EST 5:59 PM EST
Moon 7:18 AM EST (11/14) 5:06 PM EST (11/14)
Length of Visible Light 10h 50m
Length of Day
9h 50m
New Moon, 1% of the Moon is Illuminated
Nov 14
New Moon
Nov 20
First Quarter
Nov 28
Full
Dec 6
Last Quarter
Dec 13
New

Hourly Weather History & Observations

Time (EST) Temp. Windchill Dew Point Humidity Pressure Visibility Wind Dir Wind Speed Gust Speed Precip Events Conditions
12:23 AM 41.0 °F 38.0 °F 35.6 °F 81% 30.39 in 7.0 mi North 4.6 mph - 0.01 in Rain Light Rain
12:52 AM 41.0 °F 38.0 °F 37.0 °F 86% 30.40 in 10.0 mi NNW 4.6 mph - 0.01 in Rain Light Rain
1:45 AM 44.6 °F 38.8 °F 33.8 °F 66% 30.39 in 10.0 mi NNE 11.5 mph - 0.00 in   Overcast
1:52 AM 44.1 °F 37.7 °F 34.0 °F 68% 30.40 in 10.0 mi NNE 12.7 mph - 0.00 in   Overcast
2:47 AM 44.6 °F 38.1 °F 33.8 °F 66% 30.40 in 10.0 mi NNE 13.8 mph 19.6 mph N/A   Overcast
2:52 AM 44.1 °F 37.7 °F 34.0 °F 68% 30.40 in 10.0 mi NNE 12.7 mph - N/A   Overcast
3:52 AM 44.1 °F 38.1 °F 35.1 °F 71% 30.40 in 10.0 mi NNE 11.5 mph 18.4 mph N/A   Overcast
4:52 AM 44.1 °F 37.7 °F 34.0 °F 68% 30.43 in 10.0 mi NNE 12.7 mph - N/A   Overcast
5:52 AM 43.0 °F 35.7 °F 32.0 °F 65% 30.45 in 10.0 mi NNE 15.0 mph 20.7 mph N/A   Overcast
6:52 AM 42.1 °F 33.9 °F 30.9 °F 65% 30.47 in 10.0 mi NNE 17.3 mph 21.9 mph N/A   Overcast
7:52 AM 42.1 °F 35.2 °F 30.0 °F 62% 30.49 in 10.0 mi North 12.7 mph 24.2 mph N/A   Partly Cloudy
8:52 AM 44.1 °F 36.8 °F 30.9 °F 60% 30.49 in 10.0 mi North 16.1 mph 23.0 mph N/A   Mostly Cloudy
9:52 AM 44.1 °F 35.9 °F 30.9 °F 60% 30.50 in 10.0 mi North 19.6 mph 26.5 mph N/A   Mostly Cloudy
10:52 AM 45.0 °F 37.4 °F 30.9 °F 58% 30.49 in 10.0 mi North 18.4 mph 24.2 mph N/A   Overcast
11:52 AM 44.1 °F 36.5 °F 30.9 °F 60% 30.47 in 10.0 mi North 17.3 mph 27.6 mph N/A   Overcast
12:52 PM 45.0 °F 37.4 °F 30.9 °F 58% 30.47 in 10.0 mi NNE 18.4 mph 28.8 mph N/A   Mostly Cloudy
1:52 PM 44.1 °F 36.5 °F 30.0 °F 58% 30.46 in 10.0 mi NNE 17.3 mph 27.6 mph N/A   Mostly Cloudy
2:52 PM 44.1 °F 37.4 °F 28.9 °F 55% 30.45 in 10.0 mi NNE 13.8 mph 26.5 mph N/A   Partly Cloudy
3:52 PM 43.0 °F 36.0 °F 28.9 °F 58% 30.46 in 10.0 mi NNE 13.8 mph 21.9 mph N/A   Clear
4:52 PM 39.9 °F 34.5 °F 28.9 °F 65% 30.47 in 10.0 mi North 8.1 mph - N/A   Clear
5:52 PM 41.0 °F 35.2 °F 28.0 °F 60% 30.47 in 10.0 mi North 9.2 mph - N/A   Clear
6:52 PM 41.0 °F 34.7 °F 28.9 °F 62% 30.48 in 10.0 mi NNE 10.4 mph - N/A   Partly Cloudy
7:52 PM 43.0 °F 36.0 °F 28.9 °F 58% 30.46 in 10.0 mi NNE 13.8 mph 19.6 mph N/A   Mostly Cloudy
8:52 PM 43.0 °F 36.0 °F 30.0 °F 60% 30.45 in 10.0 mi NE 13.8 mph 24.2 mph N/A   Scattered Clouds
9:52 PM 44.1 °F 37.1 °F 30.9 °F 60% 30.45 in 10.0 mi NE 15.0 mph 23.0 mph N/A   Overcast
10:52 PM 44.1 °F 36.8 °F 30.9 °F 60% 30.45 in 10.0 mi NE 16.1 mph 23.0 mph N/A   Overcast
11:52 PM 43.0 °F 36.4 °F 30.9 °F 62% 30.43 in 10.0 mi NE 12.7 mph 25.3 mph N/A   Mostly Cloudy